Theta_e
341 328 323 340 352 352 350 348 345 346 337 332 336 341 342 334 335 338 339 340 341 343 345 342 341 338 337 337 337 337 339 339 336 330 328 332 335 336 339 337 339 337 336
334 328 322 331 350 351 349 347 347 347 335 335 333 334 342 332 338 339 339 340 342 345 346 346 343 340 338 338 339 339 339 338 339 340 338 332 331 327 326 326 329 335 337
330 326 321 324 344 349 349 349 348 340 335 332 337 338 338 336 340 340 341 346 345 345 345 341 339 338 337 336 336 337 338 341 343 342 340 340 333 329 329 328 328 326 325
326 325 321 320 328 342 347 349 341 336 330 329 341 338 333 337 342 344 344 344 343 342 340 338 337 336 335 335 335 336 337 338 340 342 346 344 340 333 334 335 331 333 333
329 325 321 319 321 326 331 331 329 328 327 330 339 337 333 336 340 341 340 339 339 339 337 336 335 335 334 334 334 334 336 337 339 343 345 346 340 337 336 335 335 329 331
335 326 321 320 322 325 325 327 326 325 334 337 341 336 335 337 339 339 339 338 338 337 335 334 333 332 332 331 331 331 332 333 335 343 344 344 341 338 338 337 333 331 329
339 326 325 323 325 327 331 325 323 328 339 339 337 335 335 336 337 336 336 337 336 334 333 332 331 330 329 329 332 334 334 334 337 342 345 344 342 337 337 338 337 334 332
332 326 326 326 326 325 322 319 323 329 333 335 334 333 334 333 334 334 334 334 333 332 332 331 329 329 330 332 333 335 335 335 335 341 344 345 344 340 337 338 338 338 336
327 326 325 325 327 325 320 320 325 328 331 331 333 330 331 331 331 333 333 332 332 331 330 328 328 329 330 332 333 334 334 332 338 340 342 345 345 341 339 338 339 339 338
335 328 325 324 326 327 322 322 326 329 330 332 332 330 330 330 331 331 332 330 330 328 327 327 328 329 329 331 331 332 339 336 337 342 336 342 346 341 339 339 339 339 339
341 333 335 326 326 325 323 326 327 328 329 330 331 329 328 328 328 328 327 329 335 332 326 325 326 331 332 336 336 345 343 340 341 339 341 346 346 343 340 340 340 340 340
342 341 338 335 330 334 327 326 326 329 328 329 328 327 327 326 332 337 340 342 340 333 326 325 328 337 342 345 346 345 347 348 346 346 345 345 341 339 342 340 340 340 340
343 341 341 338 336 339 338 326 327 329 328 328 327 327 325 335 341 342 341 340 340 337 332 335 343 342 343 347 347 346 345 344 345 344 344 344 344 344 342 341 342 340 341
342 341 341 339 339 338 339 329 326 329 328 329 336 337 341 337 341 344 340 337 337 338 340 339 344 345 346 347 347 345 346 345 344 342 346 345 344 343 343 342 340 338 337
343 342 341 339 340 339 340 338 331 338 336 340 340 341 343 344 344 342 340 340 341 342 342 343 346 348 348 346 346 346 346 345 346 335 344 345 345 344 343 341 339 338 336
341 342 341 340 340 340 341 340 340 341 340 341 341 343 343 343 342 341 341 340 339 341 341 343 345 345 346 347 347 346 345 347 345 345 346 345 344 343 342 341 339 334 334
339 342 342 340 339 341 344 342 340 341 342 341 343 343 343 342 343 344 341 342 345 346 347 348 349 349 348 347 346 345 343 345 343 342 344 343 342 341 339 334 336 334 336
339 340 343 342 341 340 344 343 341 343 342 343 344 344 344 341 343 344 342 344 347 348 349 348 348 349 347 346 345 344 344 342 340 342 342 341 336 339 332 333 333 337 337
339 339 344 344 344 341 341 343 343 341 342 341 340 342 342 342 341 342 345 345 348 350 349 347 349 348 348 346 344 342 340 338 342 342 339 335 334 331 328 328 337 337 333
338 339 341 344 344 344 342 344 344 343 343 341 342 341 345 344 344 345 348 350 352 351 351 349 347 346 346 344 344 340 334 329 339 336 334 332 331 329 328 334 334 333 330
339 340 341 343 346 347 347 348 345 345 343 343 340 345 346 345 346 347 348 347 351 350 349 348 348 347 345 344 335 329 338 339 336 333 331 328 324 322 326 327 330 330 329
341 341 341 342 345 348 348 348 347 344 344 344 341 346 347 347 347 348 348 349 352 351 351 350 345 343 340 333 328 329 323 328 331 332 328 320 320 322 321 324 319 330 330
344 346 346 344 345 349 348 349 348 347 344 345 342 344 348 349 349 352 350 353 353 351 349 347 341 336 333 331 327 326 321 325 325 324 321 318 321 317 317 318 318 332 329
341 347 349 349 348 348 349 350 347 347 345 345 344 343 350 350 351 353 355 354 352 350 347 343 338 331 324 329 327 325 325 325 321 323 320 317 316 315 315 318 319 327 327
334 336 338 343 351 352 352 351 349 346 347 346 346 345 349 353 354 356 354 353 351 349 346 339 331 326 322 323 322 321 321 319 318 317 316 315 315 314 315 316 321 324 323
327 332 331 342 349 351 344 341 350 342 345 348 349 354 355 356 356 354 353 351 349 343 334 330 324 326 323 322 321 319 318 318 316 316 312 313 313 313 313 314 316 316 316
Wind_Speed
22 24 21 21 23 19 15 17 16 14 14 16 16 17 17 17 19 20 20 20 20 19 18 18 18 19 19 19 19 17 16 16 17 18 17 15 15 18 18 13 12 14 13
30 24 22 22 23 21 18 15 15 16 14 16 16 16 16 18 18 19 19 18 17 16 15 14 14 14 15 15 14 13 11 11 10 10 13 13 11 12 11 10 13 12 12
29 25 23 23 22 22 20 19 18 15 15 16 17 17 17 17 18 17 17 16 15 14 13 12 12 12 11 11 10 9 7 6 5 3 3 2 7 9 11 11 11 10 10
30 26 24 23 23 21 21 19 17 16 16 18 18 17 17 17 16 15 14 13 13 12 11 10 9 8 8 7 7 7 6 5 5 5 3 2 1 6 7 8 9 8 7
28 25 24 24 22 21 20 18 17 17 18 19 18 16 16 16 15 14 14 12 10 9 8 7 6 5 5 4 4 5 5 5 6 6 5 5 10 4 6 5 6 6 6
24 24 24 23 23 22 21 19 18 19 19 18 16 16 15 15 14 13 11 10 9 7 5 4 4 4 4 4 4 4 4 5 7 7 10 4 9 3 4 3 3 3 3
24 24 23 22 22 22 21 20 19 20 18 17 16 15 15 14 13 12 9 8 7 5 3 2 2 2 3 4 3 4 6 8 10 9 13 5 12 0 3 2 1 1 1
26 25 23 22 21 21 21 21 20 19 19 17 16 14 13 13 12 11 9 7 5 4 1 1 2 3 3 5 6 7 6 8 9 6 4 5 13 5 1 1 1 1 2
26 24 23 22 21 20 20 21 20 19 18 17 16 15 13 12 11 9 8 7 5 3 2 3 4 4 5 8 9 10 10 9 7 14 9 6 11 7 3 3 1 1 3
25 23 23 23 22 21 21 20 19 18 18 17 16 15 13 11 10 8 7 5 4 3 4 5 6 7 8 10 12 14 13 13 10 13 19 13 11 9 9 5 5 3 4
24 22 21 22 22 21 20 20 19 18 18 17 16 15 14 12 10 8 6 5 5 6 6 7 8 9 10 11 12 12 15 19 10 9 16 8 13 7 7 7 6 5 5
30 25 22 21 21 20 20 21 20 19 19 18 17 16 14 13 11 7 5 7 7 9 9 9 10 11 12 11 12 16 14 17 13 8 12 13 5 9 6 6 5 6 7
36 33 28 24 23 24 21 21 21 20 19 18 17 16 15 14 13 14 11 12 12 12 11 10 11 13 14 12 11 11 11 11 2 1 2 5 3 6 4 5 7 9 8
34 37 35 31 30 32 24 23 22 21 20 19 19 17 14 15 14 19 17 14 18 15 14 15 13 14 13 8 8 12 11 10 10 11 4 3 2 5 8 3 7 10 11
35 37 40 38 35 37 31 26 24 23 24 21 20 19 16 15 13 14 13 10 3 8 9 11 7 3 3 5 6 10 11 10 9 8 5 6 8 6 4 6 7 13 16
37 38 41 42 36 40 35 28 27 27 27 27 25 23 20 19 16 14 11 9 10 7 6 7 10 12 8 7 8 9 10 8 8 9 7 7 6 3 6 7 6 18 17
36 39 43 44 38 32 34 30 28 31 31 32 30 27 22 22 18 13 15 10 11 10 10 9 6 8 9 5 5 9 10 7 7 10 10 6 8 6 8 11 10 17 16
36 39 42 44 41 39 32 32 31 28 26 28 25 27 25 22 23 17 16 16 12 10 9 7 7 6 5 7 9 10 10 10 10 7 3 6 10 8 10 12 11 14 13
38 42 41 41 41 40 39 33 29 28 28 27 28 25 27 25 22 22 18 18 13 12 12 11 5 1 6 7 9 10 14 11 5 3 4 6 5 8 10 12 9 11 18
42 46 44 42 41 40 39 35 30 26 24 29 28 30 30 28 24 25 23 19 16 12 10 9 6 5 5 7 5 9 12 10 1 2 6 8 7 9 11 10 10 13 18
43 44 47 44 42 43 39 36 35 36 34 32 31 32 31 30 26 26 25 22 19 18 12 12 7 5 1 2 2 9 12 10 8 6 7 11 12 10 11 11 11 13 11
46 49 48 48 44 45 41 41 34 35 35 37 34 31 33 33 28 27 27 24 21 16 16 12 8 5 3 3 3 4 3 6 13 12 16 16 13 11 10 9 12 6 6
25 37 41 46 48 46 44 36 29 25 26 28 37 33 36 35 31 27 29 24 21 20 18 13 10 8 7 7 7 5 3 2 2 10 14 16 13 14 11 9 11 1 5
39 16 20 14 39 49 46 38 39 33 30 34 34 35 36 36 32 28 28 25 23 20 19 16 14 11 9 9 12 11 8 5 3 2 4 14 12 13 14 15 7 2 7
44 42 28 22 17 19 16 34 34 32 30 29 27 31 33 36 30 30 28 23 24 21 22 19 17 14 12 12 13 9 15 16 11 4 0 8 11 12 13 12 12 13 7
39 42 46 19 10 11 10 31 11 27 33 26 29 31 33 32 31 28 25 26 24 25 26 21 20 18 17 16 15 14 11 7 6 6 2 1 4 8 8 12 10 10 7
Wind_Direction
138 140 143 138 129 131 135 128 124 117 109 106 108 110 107 106 104 103 102 100 97 94 90 86 84 82 82 80 80 80 82 81 80 81 81 86 90 85 94 88 88 90 92
142 142 144 142 136 132 131 128 126 121 116 115 114 113 113 112 109 109 106 103 100 97 93 90 87 84 82 79 75 74 72 75 78 80 77 65 87 85 94 89 90 97 84
139 143 143 145 140 136 133 134 132 128 123 121 118 120 119 116 114 112 109 106 104 101 99 95 90 83 76 72 69 70 67 60 55 57 110 313 61 82 81 80 85 88 88
139 144 144 146 145 142 139 139 136 132 130 127 125 125 125 124 122 120 118 114 110 108 104 96 87 79 73 69 64 62 59 46 33 11 0 204 182 84 74 79 83 81 82
138 145 144 145 145 145 144 142 140 138 137 135 134 132 130 129 127 128 126 122 117 113 111 106 95 78 62 51 42 45 42 26 21 18 12 299 197 93 73 74 79 76 82
143 147 146 145 145 145 144 145 143 141 140 140 141 138 137 137 136 134 132 131 127 122 113 100 84 59 27 16 14 15 8 6 359 5 355 286 197 95 81 73 91 89 88
148 150 147 147 148 147 147 147 146 145 144 146 146 145 146 146 146 142 144 139 135 132 125 94 41 19 348 340 349 355 347 346 350 339 16 218 222 298 88 77 72 95 96
150 150 150 152 152 151 151 150 150 152 151 154 153 154 157 155 157 155 155 152 155 148 159 311 319 323 315 304 316 325 336 345 340 7 63 259 230 249 230 173 122 266 275
151 152 155 156 156 155 155 154 154 156 158 160 163 163 167 167 169 170 168 171 180 180 246 283 292 296 301 305 307 314 318 319 335 348 332 341 241 251 269 256 263 284 273
152 157 158 159 160 161 160 160 159 164 166 169 173 173 175 179 183 183 186 193 212 246 265 278 284 288 293 300 307 306 305 301 323 339 316 306 246 275 279 274 290 298 285
151 161 166 165 166 166 165 166 167 172 175 178 183 183 185 188 191 195 197 214 250 265 271 282 288 297 296 300 312 315 303 291 287 338 275 287 213 220 250 275 284 296 300
157 165 172 173 171 170 173 174 174 179 184 188 190 192 193 193 195 215 215 252 266 263 265 273 276 285 287 305 322 331 315 304 296 294 271 221 254 246 260 271 294 319 310
168 169 174 176 175 176 183 180 180 188 190 193 196 198 200 201 214 226 226 245 250 258 254 267 275 275 286 286 306 332 347 348 14 38 301 217 237 237 255 320 340 350 344
169 175 180 180 175 182 188 185 188 191 194 196 197 198 208 212 224 227 224 255 261 255 265 263 272 286 280 302 298 346 355 353 358 14 318 217 268 324 315 20 20 18 7
174 178 180 182 179 184 194 187 188 193 196 195 199 199 205 217 231 206 228 241 238 244 269 285 283 349 339 329 341 322 337 329 347 346 338 290 351 355 360 1 20 27 8
175 177 178 183 184 187 194 191 190 200 202 203 201 200 202 205 209 226 218 239 253 249 267 279 304 310 312 316 332 350 336 352 15 34 22 57 57 40 21 8 351 12 1
180 174 180 182 182 184 194 192 196 205 206 208 206 201 201 200 209 213 217 222 235 248 264 260 286 329 302 317 316 327 328 328 334 350 358 16 31 37 25 17 14 1 353
181 176 180 182 185 190 190 195 198 194 192 196 194 199 200 203 209 207 211 216 217 234 256 255 287 300 299 327 330 337 5 339 323 315 18 44 29 42 33 29 13 18 8
181 180 181 187 190 195 199 203 200 202 205 202 206 206 203 208 213 212 213 212 217 244 232 253 272 292 320 339 334 324 319 325 324 337 29 37 47 56 32 10 62 26 19
184 186 187 190 195 197 202 208 209 210 214 212 208 210 211 212 212 207 208 204 219 212 229 236 242 266 317 330 302 311 318 318 213 122 78 93 62 35 29 64 38 26 7
187 188 188 187 197 194 193 198 208 212 215 211 210 211 215 214 208 207 210 213 222 229 220 221 215 230 283 248 2 339 22 105 100 73 81 74 60 49 57 40 23 11 38
188 192 190 192 195 196 192 197 203 208 215 215 212 213 214 212 207 210 211 209 216 198 190 202 194 189 137 128 108 82 17 51 67 72 87 62 50 49 43 34 15 19 75
210 193 193 194 194 197 198 192 195 207 216 220 216 217 215 210 202 212 214 211 205 195 196 191 184 166 154 140 117 132 87 179 349 80 69 47 53 46 34 23 352 100 122
14 336 319 259 199 200 196 191 190 195 205 212 209 214 212 205 200 208 211 205 199 188 189 185 172 163 152 144 120 118 110 139 145 352 46 40 32 27 15 2 334 115 124
27 18 353 336 283 260 281 200 197 198 207 213 209 212 214 198 200 200 200 193 195 195 188 182 172 163 153 129 132 129 110 85 86 115 310 344 4 6 13 18 54 100 92
28 24 23 1 318 233 302 328 11 351 314 221 199 200 191 189 191 190 198 198 198 185 179 174 164 160 147 130 119 110 114 125 102 93 103 334 329 350 3 50 54 74 64